www.pogodaiklimat.ru

Погода и климат >> Архив погоды >> Антигуа и Барбуда >> Сент-Джонс


ПОГОДА в Сент-Джонсе

  • Прогноз погоды в Сент-Джонсе
  • Монитор погоды в Сент-Джонсе

АРХИВ ПОГОДЫ в Сент-Джонсе

Время (UTC), дата Ветер
(напр.,м/с)
 
Видим.   Явления Облачность Т
(С)
Тd
(С)
f
(%)
Тe
(С)
Тes
(С)
Комфортность P
(гПа)
Po
(гПа)
Тmin
(С)
Tmax
(С)
R
(мм)
R24
(мм)
S
(см)
18 16.09 В 5 14 км осадки на расстоянии 9/8 480 м
[Cu Sc Ac As Cs]
+29.8 +24.9 75 +43 +44 опасность
перегрева
1013.4 1011.0 +24.9 +31.3
18 17.09 В 5 24 км пыль {ливн. осадки} 9/1 660 м
[Cu med, cong Ci sp]
+30.1 +23.7 69 +41 +48 опасность
перегрева
1012.7 1010.3 +24.4 +31.6 0.6
21 17.09 В 5 26 км пыль 9/4 600 м
[Cu med, cong Ci sp]
+29.0 +23.9 74 +40 +41 очень
душно
1012.2 1009.8
00 18.09 Ю 2 26 км пыль 9/3 540 м
[Cu med, cong Ci sp]
+27.9 +23.9 79 +39 +39 очень
душно
1013.0 1010.6 +27.5 +31.6
03 18.09 В 2 26 км пыль 9/4 540 м
[Cu med, cong Ci sp]
+27.7 +23.2 77 +37 +37 очень
душно
1013.6 1011.2
06 18.09 В 4 26 км пыль 9/3 540 м
[Cu med, cong Ci sp]
+27.9 +23.1 75 +37 +37 очень
душно
1012.1 1009.7 +27.5 +31.6
09 18.09 В 4 26 км пыль 9/3 540 м
[Cu med, cong Ci sp]
+27.7 +23.5 78 +38 +38 очень
душно
1011.6 1009.2
18 18.09 В 4 24 км пыль 9/3 600 м
[Cu med, cong Ci sp]
+30.3 +23.1 65 +40 +46 очень
душно
1011.2 1008.8 +27.3 +31.4
21 18.09 В 4 24 км 9/1 600 м
[Cu med, cong Ci sp]
+28.9 +23.3 72 +39 +40 очень
душно
1009.9 1007.5
00 19.09 В 3 24 км пыль 9/4 600 м
[Cu med, cong Ci sp]
+27.9 +23.1 75 +37 +37 очень
душно
1010.9 1008.5 +27.3 +31.4
12 19.09 В 3 24 км пыль 9/6 540 м
[Cu med, cong Ci sp]
+28.9 +24.1 75 +40 +41 очень
душно
1011.1 1008.7 +24.6 +31.4 0.1
15 19.09 В 5 30 км 9/3 600 м
[Cu med, cong Ci sp]
+31.0 +24.2 67 +43 +49 опасность
перегрева
1011.2 1008.8
06 20.09 СВ 4 30 км 6/3 600 м
[Cu med, cong Ci sp]
+27.6 +24.5 83 +39 +39 очень
душно
1011.2 1008.8 +24.6 +31.7
09 20.09 нст 1 30 км 9/5 600 м
[Cu Sc Ci sp]
+27.4 +24.3 83 +38 +38 очень
душно
1011.0 1008.6
12 20.09 ЮЗ 2 28 км пыль 9/1 540 м
[Cu Sc Ci sp]
+28.8 +25.3 81 +42 +45 опасность
перегрева
1012.7 1010.3 +25.7 +31.7
15 20.09 СЗ 3 26 км пыль 9/3 420 м
[Cu med, cong Ci sp]
+30.8 +24.6 70 +44 +52 опасность
перегрева
1013.0 1010.6
18 20.09 СВ 4 26 км осадки на расстоянии 9/6 480 м
[Cu Sc Ci sp]
+28.6 +22.0 68 +37 +41 очень
душно
1011.3 1008.9 +25.7 +32.8
12 21.09 В 3 8000 м ливневой дождь 9/8 420 м
[Cu Sc Ci sp]
+26.8 +23.8 84 +37 +38 очень
душно
1015.1 1012.7 +26.4 +32.8 0.8
15 21.09 В 5 28 км пыль 9/6 540 м
[Cu Sc Ci sp]
+30.4 +24.0 69 +42 +45 опасность
перегрева
1014.6 1012.2
18 21.09 ЮВ 6 26 км пыль {ливн. осадки} 9/4 600 м
[Cu med, cong Ac trans Ci sp]
+30.9 +23.6 65 +42 +44 опасность
перегрева
1013.1 1010.7 +26.3 +32.1 0.9
21 21.09 В 5 22 км пыль 9/4 540 м
[Cu med, cong Ac trans Ci sp]
+29.3 +24.5 75 +41 +42 опасность
перегрева
1012.9 1010.5
00 22.09 В 5 22 км осадки на расстоянии {ливн. осадки} 9/6 480 м
[Cu Sc Ci sp]
+28.0 +24.7 82 +40 +40 очень
душно
1014.4 1012.0 +25.9 +32.1 3
03 22.09 В 7 20 км слаб. ливневой дождь 9/6 540 м
[Cu med, cong Ci sp]
+28.6 +24.4 78 +40 +40 очень
душно
1014.8 1012.4
09 22.09 В 5 22 км пыль 9/6 500 м
[Cu med, cong Ci sp]
+27.9 +24.4 81 +39 +39 очень
душно
1012.9 1010.5
12 22.09 В 5 24 км пыль 9/3 600 м
[Cu med, cong Ci sp]
+29.6 +23.7 71 +41 +42 опасность
перегрева
1014.4 1012.0 +23.7 +32.1
15 22.09 В 7 24 км пыль 6/4 600 м
[Cu med, cong Ci sp]
+31.4 +24.5 67 +44 +47 опасность
перегрева
1014.6 1012.2
18 22.09 В 7 24 км осадки на расстоянии 9/6 540 м
[Cu med, cong Ci fib]
+30.7 +23.6 66 +42 +43 опасность
перегрева
1013.2 1010.8 +23.7 +31.7
21 22.09 ЮВ 4 30 км {ливн. осадки} 6/3 570 м
[Cu med, cong Ci fib]
+28.9 +23.5 73 +39 +40 очень
душно
1012.2 1009.8
00 23.09 ЮВ 3 26 км слаб. ливневой дождь 9/4 500 м
[Cu med, cong Ci fib]
+26.4 +24.3 88 +37 +37 очень
душно
1013.6 1011.2 +26.3 +31.7 0.9
03 23.09 штиль 0 30 км {ливн. осадки} 9/6 480 м
[Cu med, cong Ci fib]
+26.3 +23.6 85 +36 +36 очень
душно
1014.2 1011.8
06 23.09 ЮВ 3 30 км {ливн. осадки} 9/1 540 м
[Cu med, cong Ci sp]
+26.2 +23.2 84 +35 +35 очень
душно
1012.7 1010.3 +25.6 +31.7 0.1
09 23.09 ЮВ 4 30 км 9/0 300 м
[Ac cast]
+27.0 +22.9 78 +36 +36 очень
душно
1012.9 1010.5
12 23.09 ЮВ 4 30 км 9/3 540 м
[Cu med, cong Ci sp]
+28.2 +23.0 73 +38 +39 очень
душно
1013.7 1011.3 +25.6 +31.7
15 23.09 ЮВ 6 30 км 9/4 570 м
[Cu med, cong Ci sp]
+30.9 +23.6 65 +42 +45 опасность
перегрева
1013.6 1011.2

 

Местоположение метеостанции Сент-Джонс (Антигуа и Барбуда): широта 17.12 долгота -61.78 высота над уровнем моря 10 м.

В архиве по умолчанию представлена погода в Сент-Джонсе за последнюю неделю. Архивные данные за месяц целиком и за предыдущие месяцы, начиная с января 2011 года, Вы можете получить, выбрав интересующий диапазон дат из раскрывающегося списка и нажав кнопку "Ввод!".


*Определитесь, кто Вы:
робот инопланетянин человек

Внимание! Время в таблицах - всемирное. Для получения местного времени необходимо прибавить поправку, которая равна -4 ч.

Смотрите также архив погоды в соседних городах и на ближайших метеорологических станциях:

Погода в Аэропорту Ванс Амори (Сент-Китс и Невис) (87 км)
Погода в Пуэнт-а-Питре (Гваделупа) (96 км)
Погода в Аэропорту Роберт Брэдшоу (Сент-Китс и Невис) (98 км)
Погода в Принцессы Юлианы аэропорту (Нидерландские Антилы) (174 км)
Погода в Ангилье (Ангилья) (180 км)
Погода в Канфилд аэропорту (Доминика) (181 км)
Погода в Дуглас-Шарль аэропорту (Доминика) (184 км)
Погода на Каравелле (Мартиника) (279 км)
Погода в Аэропорту Мартиники (Мартиника) (292 км)
Погода в Виги (Сент-Люсия) (356 км)

Пояснения к столбцам:

Ветер - указаны скорость ветра в м/с - средняя за 10 мин, порывы в срок и между сроками (в фигурных скобках) и направление, откуда дует ветер: С - северный, СВ - северо-восточный, В - восточный, ЮВ - юго-восточный, Ю - южный, ЮЗ - юго-западный, З - западный, СЗ - северо-западный.
Видимость - горизонтальная дальность видимости в метрах или километрах. При видимости от 1 до 10 км при отсутствии осадков обычно наблюдается дымка, при ухудшении видимости до 1 км и менее - туман. В сухую погоду видимость может ухудшаться дымом, пылью или мглою.
Явления - указаны атмосферные явления, наблюдавшиеся в срок или в последний час перед сроком; фигурными скобками обозначены явления, наблюдавшиеся между сроками (за 1-3 часа до срока); квадратными скобками обозначены град или гололедные отложения с указанием их диаметра в мм.
Облачность - указаны через наклонную черту общая и нижняя облачность в баллах и высота нижней границы облаков в метрах; квадратными скобками обозначены формы облаков: Ci - перистые, Cs - перисто-слоистые, Cc - перисто-кучевые, Ac - высококучевые, As - высокослоистые, Sc - слоисто-кучевые, Ns - слоисто-дождевые, Cu - кучевые, Cb - кучево-дождевые. Подробнее классификацию облаков см. в Атласе облаков (PDF).
T - Температура воздуха - температура, измеренная на высоте 2 м над землей.
Td - Температура точки росы - температура, при понижении до которой содержащийся в воздухе водяной пар достигнет насыщения.
f - Относительная влажность воздуха - влажноcть воздуха, измеренная на высоте 2 м над землей.
Te - Эффективная температура - температура, которую ощущает одетый по сезону человек в тени. Характеристика душности погоды. При расчете учитывается влияние влажности воздуха и скорости ветра на теплоощущения человека.
Tes - Эффективная температура на солнце - температура, которую ощущает человек, с поправкой на солнечный нагрев. Характеристика знойности погоды. Зависит от высоты солнца над горизонтом, облачности и скорости ветра. Ночью, в пасмурную погоду, а также при ветре 12 м/с и более поправка равна нулю.
P - Атмосферное давление - приведенное к уровню моря атмосферное давление.
Po - Атмосферное давление - измеренное на уровне метеостанции атмосферное давление.
Tmin - Минимальная температура - минимум температуры воздуха на высоте 2 м над землей.
Tmax - Максимальная температура - максимум температуры воздуха на высоте 2 м над землей.
R - Количество осадков - Количество выпавших осадков за период времени, мм. При наведении курсора мыши на число - период времени, за который выпало указанное количество осадков.
R24 - Количество осадков - Количество выпавших осадков за 24 часа, мм.
S - Снежный покров - Высота снежного покрова, см. При наведении курсора мыши на число - состояние снежного покрова и степень покрытия местности в баллах.